2022年5月23日

时间 代码 天气 温度 能见度 乌云 METAR/SPECI
08:55
V
22 °C 10 km+ - 050°   050° 4 kt METAR LIPI 230655Z 05004KT 9999 SCT056 22/17 Q1009 RMK BKN SCT160 VIS MIN 9999 WIND THR06 09004KT WIND THR24 07004KT BLU
07:55
V
20 °C 10 km+ - 040°   040° 6 kt METAR LIPI 230555Z 04006KT 9999 SCT063 20/17 Q1009 RMK BKN SCT180 VIS MIN 9999 WIND THR06 07006KT WIND THR24 05006KT BLU
06:55
M
19 °C 6 km - 040°   040° 4 kt METAR LIPI 230455Z 04004KT 6000 SCT060 19/17 Q1009
05:55
I
17 °C 2 km 10.000 ft 350°   350° 4 kt METAR LIPI 230355Z 35004KT 2000 BR SCT030 BKN100 17/16 Q1010
04:55
V
18 °C 10 km+ - 260°   260° 2 kt METAR LIPI 230255Z 26002KT 9999 FEW030 SCT100 18/16 Q1009 RMK OVC VIS MIN 9999 WIND THR06 27003KT WIND THR24 27001KT BLU
03:55
V
18 °C 10 km+ - 240°   240° 3 kt METAR LIPI 230155Z 24003KT 9999 FEW030 SCT100 18/17 Q1009 RMK OVC VIS MIN 9999 WIND THR06 27004KT WIND THR24 25004KT BLU
02:55
V
19 °C 10 km+ - 350°   350° 4 kt METAR LIPI 230055Z 35004KT 9999 SCT030 SCT100 19/18 Q1009 RMK OVC VIS MIN 9999 WIND THR06 04007KT WIND THR24 01004KT BLU
01:55
V
19 °C 10 km+ - 080°   080° 10 kt METAR LIPI 222355Z 08010KT 9999 -RA FEW025CB SCT086 19/18 Q1009
00:55
V
20 °C 10 km+ - 260°   260° 4 kt METAR LIPI 222255Z 26004KT 9999 -TSRA SCT030CB SCT073 20/19 Q1012

2022年5月22日

时间 代码 天气 温度 能见度 乌云 METAR/SPECI
23:55
V
20 °C 10 km+ - 290°   290° 2 kt METAR LIPI 222155Z 29002KT 9999 FEW030 SCT100 20/18 Q1011 RMK OVC VIS MIN 9999 WIND THR06 34002KT WIND THR24 32002KT BLU
22:55
V
21 °C 10 km+ - 040°   040° 3 kt METAR LIPI 222055Z 04003KT 9999 FEW030 SCT100 21/18 Q1010 RMK BKN BKN200 VIS MIN 9999 WIND THR06 07003KT WIND THR24 05003KT BLU
21:55
V
21 °C 10 km+ - 120°   120° 5 kt METAR LIPI 221955Z 12005KT 9999 FEW040CB SCT100 21/19 Q1010 RMK BKN VIS MIN 9999 WIND THR06 14006KT WIND THR24 13005KT BLU
20:55
V
23 °C 10 km+ - 110°   110° 6 kt METAR LIPI 221855Z 11006KT 9999 FEW040CB SCT100 23/18 Q1009 RMK BKN BKN200 VIS MIN 9999 WIND THR06 14006KT WIND THR24 12007KT BLU
19:55
V
25 °C 10 km+ - 110°   110° 3 kt METAR LIPI 221755Z 11003KT 9999 SCT070 25/16 Q1009
18:55
V
26 °C 10 km+ - 180°   180° 5 kt METAR LIPI 221655Z 18005KT 9999 FEW070 26/15 Q1009 RMK BKN BKN200 VIS MIN 9999 WIND THR06 21005KT WIND THR24 20005KT BLU
17:55
V
27 °C 10 km+ - 160°   160° 5 kt METAR LIPI 221555Z 16005KT 9999 FEW070 27/16 Q1009 RMK SCT SCT200 VIS MIN 9999 WIND THR06 18007KT WIND THR24 20006KT BLU
16:55
V
26 °C 10 km+ - 170°   170° 6 kt METAR LIPI 221455Z 17006KT 9999 FEW040CB 26/16 Q1010 RMK SCT VIS MIN 9999 WIND THR06 20007KT WIND THR24 18005KT BLU
15:55
V
26 °C 10 km+ - 170°   170° 8 kt METAR LIPI 221355Z 17008KT 9999 FEW045 SCT070 26/16 Q1011 RMK BKN BKN200 VIS MIN 9999 WIND THR06 21009KT WIND THR24 19009KT BLU
14:55
V
28 °C 10 km+ - 150°   150° 5 kt METAR LIPI 221255Z 15005KT 9999 FEW045 28/17 Q1011 RMK BKN BKN170 VIS MIN 9999 WIND THR06 20007KT WIND THR24 18004KT BLU
13:55
V
27 °C 10 km+ - 150°   150° 5 kt METAR LIPI 221155Z 15005KT 9999 FEW045 27/16 Q1011 RMK BKN BKN170 VIS MIN 9999 WIND THR06 19005KT WIND THR24 17004KT BLU
12:55
V
28 °C 10 km+ - 090°   090° 4 kt METAR LIPI 221055Z 09004KT 9999 FEW045 28/19 Q1012 RMK SCT SCT200 VIS MIN 9999 WIND THR06 18006KT WIND THR24 VRB04KT BLU
11:55
V
27 °C 10 km+ - 100°   100° 6 kt METAR LIPI 220955Z 10006KT 9999 FEW045 27/17 Q1012 RMK SCT SCT200 VIS MIN 9999 WIND THR06 14006KT WIND THR24 12007KT BLU
10:55
V
26 °C 10 km+ - 070°   070° 7 kt METAR LIPI 220855Z 07007KT 9999 FEW040 26/17 Q1013
09:55
V
25 °C 10 km+ - 060°   060° 8 kt METAR LIPI 220755Z 06008KT CAVOK 25/17 Q1013 RMK FEW FEW200 VIS MIN 9999 WIND THR06 09008KT WIND THR24 07008KT BLU
08:55
V
24 °C 10 km+ - 060°   060° 6 kt METAR LIPI 220655Z 06006KT CAVOK 24/17 Q1013 RMK BKN SCT140 SCT200 VIS MIN 9999 WIND THR06 10005KT WIND THR24 06006KT BLU
07:55
V
21 °C 10 km+ - 010°   010° 3 kt METAR LIPI 220555Z 01003KT CAVOK 21/16 Q1014 RMK SKC VIS MIN 9999 WIND THR06 05004KT WIND THR24 03003KT BLU
06:55
V
17 °C 10 km+ - 340°   340° 2 kt METAR LIPI 220455Z 34002KT CAVOK 17/16 Q1013 RMK SKC VIS MIN 9999 WIND THR06 03002KT WIND THR24 35002KT BLU
05:55
V
15 °C 10 km+ - 340°   340° 2 kt METAR LIPI 220355Z 34002KT CAVOK 15/14 Q1013 RMK SKC VIS MIN 9999 WIND THR06 03002KT WIND THR24 02002KT BLU
04:55
V
16 °C 10 km+ - 100°   100° 3 kt METAR LIPI 220255Z 10003KT CAVOK 16/15 Q1013 RMK SKC VIS MIN 9999 WIND THR06 05002KT WIND THR24 10002KT BLU
03:55
V
17 °C 10 km+ - 320°   320° 1 kt METAR LIPI 220155Z 32001KT CAVOK 17/15 Q1013 RMK SKC VIS MIN 9999 WIND THR06 35001KT WIND THR24 VRB02KT BLU
02:55
V
17 °C 10 km+ - 340°   340° 5 kt METAR LIPI 220055Z 34005KT CAVOK 17/16 Q1013 RMK SKC VIS MIN 9999 WIND THR06 02005KT WIND THR24 01003KT BLU
01:55
V
18 °C 10 km+ - 360°   360° 3 kt METAR LIPI 212355Z 36003KT CAVOK 18/17 Q1014 RMK SCT SCT200 VIS MIN 9999 WIND THR06 04004KT WIND THR24 03003KT BLU
00:55
V
18 °C 10 km+ - 340°   340° 5 kt METAR LIPI 212255Z 34005KT CAVOK 18/16 Q1014

2022年5月21日

时间 代码 天气 温度 能见度 乌云 METAR/SPECI
23:55
V
18 °C 10 km+ - 020°   020° 3 kt METAR LIPI 212155Z 02003KT CAVOK 18/17 Q1014
22:55
V
19 °C 10 km+ - 360°   360° 3 kt METAR LIPI 212055Z 36003KT CAVOK 19/17 Q1015 RMK SCT FEW120 SCT200 VIS MIN 9999 WIND THR06 03002KT WIND THR24 36003KT BLU
21:55
V
20 °C 10 km+ - 250°   250° 1 kt METAR LIPI 211955Z 25001KT CAVOK 20/18 Q1014 RMK SCT SCT120 VIS MIN 9999 WIND THR06 15001KT WIND THR24 18001KT BLU
20:55
V
22 °C 10 km+ - 150°   150° 4 kt METAR LIPI 211855Z 15004KT CAVOK 22/18 Q1014 RMK SCT FEW110 VIS MIN 9999 WIND THR06 18004KT WIND THR24 17003KT BLU
19:55
V
24 °C 10 km+ - 140°   140° 5 kt METAR LIPI 211755Z 14005KT CAVOK 24/17 Q1014
18:55
V
27 °C 10 km+ - 090°   090° 4 kt METAR LIPI 211655Z 09004KT CAVOK 27/14 Q1014 RMK FEW FEW200 VIS MIN 9999 WIND THR06 12005KT WIND THR24 10004KT BLU
17:55
V
27 °C 10 km+ - 060°   060° 2 kt METAR LIPI 211555Z 06002KT CAVOK 27/14 Q1014
16:55
V
27 °C 10 km+ - 100°   100° 5 kt METAR LIPI 211455Z 10005KT CAVOK 27/13 Q1015
15:55
V
28 °C 10 km+ - 140°   140° 4 kt METAR LIPI 211355Z 14004KT CAVOK 28/12 Q1016
14:55
V
27 °C 10 km+ - 190°   190° 4 kt METAR LIPI 211255Z 19004KT CAVOK 27/11 Q1016 RMK FEW FEW200 VIS MIN 9999 WIND THR06 18006KT WIND THR24 32004KT BLU
13:55
V
27 °C 10 km+ - 140°   140° 4 kt METAR LIPI 211155Z 14004KT CAVOK 27/10 Q1017
12:55
V
26 °C 10 km+ - 060°   060° 3 kt METAR LIPI 211055Z 06003KT CAVOK 26/07 Q1018 RMK SKC VIS MIN 9999 WIND THR06 22004KT WIND THR24 14004KT BLU
11:55
V
26 °C 10 km+ - 100°   100° 3 kt METAR LIPI 210955Z 10003KT CAVOK 26/06 Q1018 RMK SKC VIS MIN 9999 WIND THR06 11005KT WIND THR24 02002KT BLU
10:55
V
24 °C 10 km+ - 070°   070° 3 kt METAR LIPI 210855Z 07003KT CAVOK 24/05 Q1019 RMK SKC VIS MIN 9999 WIND THR06 10003KT WIND THR24 07004KT BLU
09:55
V
23 °C 10 km+ - 070°   070° 3 kt METAR LIPI 210755Z 07003KT CAVOK 23/06 Q1019 RMK FEW FEW200 VIS MIN 9999 WIND THR06 10003KT WIND THR24 08002KT BLU
08:55
V
21 °C 10 km+ - 060°   060° 3 kt METAR LIPI 210655Z 06003KT CAVOK 21/07 Q1019 RMK SCT FEW120 SCT200 VIS MIN 9999 WIND THR06 08004KT WIND THR24 06003KT BLU
较旧的数据

下载我们的应用程序

在您的手机和平板电脑上轻松访问所有航空天气。
有许多网站上没有的功能,如离线支持和个人机场列表。

Studio Eveline

Benalmádena
España

我们和第三方通过cookies跟踪您在我们网站上的上网行为。如果您继续,我们认为您同意我们的cookie政策。 了解更多